CAPE
2577 2417 2304 2252 2105 2019 2062 2192 2167 1997 1912 1881 1878 1900 1918 2202 2082 2008 1991 1898 1825 1756 1594 1458 1449 1776 1895 1792 1728 1600 1626 1778 2109 2320 2487 2638 2677 2584 2506 2330 2090 1935 1891 1953 1948 1872 1645 1552 1542 1652 1685 1629 1588 1550 1553 1538 1373 1104 1012 861 514 267 577 699 553 298 206 955 1518 1641 2258 2519 2650 2708 2585 2415 2412 2128 1660 1202 912 1100 1158 922 722
2643 2484 2349 2261 2204 2160 2092 1991 2211 2180 2020 1934 1932 1936 1949 2102 2145 2126 2028 1934 1846 1809 1753 1666 1694 1876 2085 1829 1770 1704 1618 1532 1814 2085 2257 2296 2254 2176 2148 2082 2017 1935 1796 1845 1899 1847 1706 1612 1623 1742 1759 1684 1557 1421 1396 1482 1363 1089 1141 1007 1050 710 392 553 527 274 166 1140 1199 2136 2342 2423 2524 2606 2525 2332 2253 1868 1670 1213 808 1040 1385 1294 1165
2737 2606 2455 2319 2274 2261 2215 2162 2202 2249 2171 2082 2057 2017 2005 2028 2048 2067 2036 1970 1894 1822 1859 1853 2056 2272 2210 2111 1985 1917 1789 1541 1316 1455 1537 1612 1732 2022 2340 2316 2208 2140 2056 1959 1851 1731 1811 1900 1899 1871 1806 1707 1468 1287 1402 1465 1511 1402 1368 1334 1502 1348 1206 651 542 539 157 446 1620 2298 2474 2418 2391 2479 2452 2343 2145 1892 1740 1324 991 983 1309 1353 1189
2792 2716 2595 2466 2378 2317 2506 2512 2528 2382 2274 2240 2180 2132 2122 2086 2072 2023 1964 1892 1966 2002 1890 1940 2220 2320 2080 1933 1807 1804 1749 1534 1298 1118 1043 1016 1172 1479 1935 2238 2322 2271 2148 1949 1843 1736 1602 1597 1696 1729 1729 1612 1328 1042 1199 1364 1356 1292 1342 1595 1587 1663 1643 1204 1039 662 489 415 1792 2022 2670 2499 2313 2318 2420 2429 2367 2138 1918 1574 1185 1231 1316 1267 1155
2741 2672 2580 2436 2126 2108 2172 2754 2708 2661 2594 2470 2312 2207 2163 2116 2065 2006 1896 1944 2060 2072 2028 1955 1891 1813 1737 1674 1594 1543 1490 1508 1627 1510 1289 1091 1021 1211 1526 1846 2055 2152 2115 1918 2128 1608 1591 1576 1587 1606 1488 1304 1171 1483 1716 1671 1580 1587 1653 1806 2139 2021 1898 1594 1410 1272 1077 741 1272 2131 2566 2623 2350 2205 2365 2258 2088 2149 2011 1724 1252 981 1088 1103 1073
2727 2600 2473 2239 1797 1741 1816 2488 2600 2586 2622 2584 2488 2368 2125 2099 2084 2072 2040 2084 2166 2166 2116 2037 1926 1795 1669 1587 1459 1455 1474 1276 1202 1285 1473 1364 1268 1352 1492 1654 1833 1991 1848 1686 1718 1779 1789 1672 1604 1594 1490 1141 898 1141 1430 1475 1424 1802 1952 2148 2231 1967 1610 1723 1609 1300 990 1080 1270 1959 2176 2678 2386 2270 2176 2183 2059 1870 1723 1408 1136 1047 1052 998 938
2616 2503 2475 2393 2212 2083 1361 2102 2373 2584 2608 2417 2417 2347 2170 2108 2090 2065 2039 1999 1942 1949 1924 1848 1715 1590 1493 1365 1210 1179 1270 1291 1322 1366 1526 1642 1571 1471 1566 1658 1760 1704 1683 1727 1728 1722 1763 1796 1725 1641 1423 996 772 854 1064 1521 2022 2133 2271 2232 2238 2052 1783 1756 1963 1696 1358 1112 1678 1827 1803 2287 2433 2231 1859 1957 1887 1741 1484 1256 1027 1031 1119 1195 1159
2333 2194 2037 1915 1811 1896 1799 1504 1773 1975 1987 1974 2092 2184 2124 1847 1754 1888 1847 1732 1777 1812 1866 1881 1798 1614 1483 1403 1382 1146 1253 1563 1596 1569 1518 1627 1642 1605 1623 1742 1813 1892 1914 1892 1838 1790 1740 1688 1672 1685 1576 1373 1018 965 1456 1768 1883 1972 1938 2474 2305 2073 1822 2088 2283 2328 1948 1556 1189 1857 1746 1720 1837 1652 1882 1408 1200 1304 1353 1182 1133 976 1087 1196 1152
1945 1707 1618 1634 1726 1802 1608 1634 1718 1725 1736 1735 1669 1553 1488 1557 1510 1519 1620 1706 1633 1737 1824 1801 1755 1631 1372 1250 1424 1631 1815 1720 1687 1616 1639 1704 1364 1494 1664 1757 1799 1718 1654 1778 1925 1894 1852 1910 1895 1818 1760 2050 2178 2212 2307 2595 1926 1709 2129 2406 2381 2190 1982 2481 2551 2786 2488 2373 1960 2161 2044 1433 1044 1056 1172 1042 947 1006 1037 1160 1052 996 1049 1088 1025
2099 1998 1944 1940 1896 1832 1832 1846 1794 1738 1706 1616 1390 1249 1264 1305 1375 1400 1375 1563 1571 1557 1524 1530 1417 1313 1137 1056 1240 1212 1498 1985 2309 2452 2192 1613 1470 1720 1836 1733 1723 1757 1744 1670 1600 1579 1689 1834 2012 2703 2482 2107 2087 2354 2337 2358 2285 2301 2277 2334 2180 2092 2247 2207 2180 1985 2045 2146 1990 1945 2330 1877 1627 1484 1156 1067 915 673 772 977 1007 984 1007 1054 1110
2212 2068 1969 1818 1755 1732 1777 1731 1854 1873 1592 1464 1591 1286 1312 1224 1293 1278 1334 1402 1293 1286 1318 1277 1180 1147 1116 1068 1061 1288 1862 2153 2178 2081 2197 2256 1907 1642 1560 1531 1686 1728 1623 1653 1635 1378 1421 1810 1966 2231 2802 2247 2533 2336 2224 2410 2036 2060 2139 2342 2359 2170 2032 1923 2129 2018 2114 2021 1957 2233 2296 1970 1393 1014 890 806 802 776 672 856 1007 1118 1159 1068 1032
2412 2208 2011 1964 1996 1949 1957 2041 1881 1825 1745 1631 1564 1594 1289 1357 1549 1484 1403 1239 1151 1089 1098 1037 1066 1097 960 907 1020 1285 1609 1867 1921 1797 1647 1700 1650 1576 1700 1777 1538 1565 1476 1462 1432 1413 1420 1455 1730 1882 2101 2302 2235 1968 2253 2201 2295 2127 2049 2057 2008 1847 1984 1923 1915 1959 2034 2002 1924 1868 1927 1915 1724 1566 1438 1201 995 859 803 857 1059 1264 1344 1265 1197
2826 2584 2493 2569 2434 2404 2302 2082 1866 1750 1741 1703 1579 1516 1398 1205 1247 1180 1060 1002 994 1008 997 973 1262 1068 1106 987 1254 1255 1482 1510 1512 1392 1325 1418 1545 1561 1538 1438 1469 1448 1324 1340 1253 1379 1486 1602 1726 1847 1832 2309 2026 1776 1913 2239 2154 2044 1883 1835 1955 1759 2059 1842 1880 1830 1826 1636 1668 1918 1836 1708 1309 1184 1244 1213 1152 1041 935 949 1046 1265 1415 1428 1302
3059 2922 2801 2696 2588 2501 2267 2120 1942 1754 1692 1580 1630 1484 1353 1298 1243 1124 1074 1021 981 1130 1163 1088 1299 1313 1400 1342 1288 1282 1486 1465 1402 1415 1433 1432 1360 1339 1364 1352 1336 1280 1221 1261 1381 1499 1558 1623 1755 1836 1848 2087 1820 1654 1567 1561 1638 1752 1586 1765 1742 1585 1635 1692 1808 1734 1483 1560 1611 1314 1471 1546 1553 1623 1444 1462 1387 1260 1116 1108 1105 1088 1145 1166 1206
3088 3031 2957 2844 2762 2586 2447 2384 2263 2236 2137 1930 1613 1388 1352 1366 1217 1178 1238 1258 1158 1220 1378 1264 1142 1398 1396 1250 1254 1251 1330 1417 1444 1415 1337 1219 1179 1157 1113 1099 1081 1081 1096 1063 1027 1004 1186 1537 1826 1872 1781 1700 1468 1680 1436 1421 1460 1402 1550 1512 1436 1347 1202 1286 1177 1427 1457 1319 1245 1420 1589 1660 1561 1288 1128 1146 1306 1269 1160 1191 1124 1260 1147 1070 1040
2898 3014 3050 3095 2983 2859 2690 2581 2595 2523 2104 1736 1459 1410 1452 1363 1426 1329 1248 1147 1102 1077 999 1077 1327 1406 1377 1240 1076 1209 1283 1332 1166 963 818 731 646 566 551 510 459 475 524 590 613 622 1565 1892 1986 1975 1714 1364 1295 1584 2027 1696 1540 1578 1403 1346 1227 1160 1224 1413 1496 1698 1639 1596 1572 1522 1562 1460 1304 1313 1440 1377 1231 1230 1250 1280 1158 1062 1084 1036 1087
2859 2939 2972 3096 3170 3095 3030 2955 2850 2530 1974 1726 1460 1604 1550 1450 1267 1203 1421 1349 908 672 716 693 1029 1383 1245 1086 968 1098 1229 1137 948 699 318 223 194 164 23 82 230 278 304 300 268 1138 918 1286 1747 1836 1646 1200 1316 1398 1476 1578 944 1040 934 866 713 572 842 838 1001 1149 1394 1432 1388 1424 1412 1358 1304 1307 1303 1292 1100 1061 1105 1083 1088 1125 1166 1210 1136
2978 3004 3079 2985 3242 3176 3127 3101 2888 2488 2017 1818 1688 1608 1572 1459 1204 1222 1068 864 853 757 727 660 1012 1121 1009 909 1010 1127 1085 873 498 0 0 0 20 0 0 0 0 0 0 0 121 855 812 993 661 1031 1225 899 696 595 525 666 590 473 420 479 467 364 414 387 420 555 657 796 988 1358 1536 1557 1416 1286 1272 1236 1206 1174 1075 1005 1048 1139 1137 1097 1106
3188 3131 3068 3139 2929 3012 3116 3074 2800 2471 2145 1940 1693 1597 1616 1391 1047 916 835 731 688 681 695 688 640 723 738 830 925 589 298 216 184 149 0 0 0 0 0 0 0 0 0 0 0 122 171 292 376 426 465 419 402 398 374 326 273 135 42 33 31 37 151 0 0 2 66 98 625 873 1216 1308 1199 1147 1202 1171 1023 1092 1160 1016 1060 990 1039 1091 997
3240 3236 3243 3170 2956 2974 2916 2860 2484 2348 2284 2223 1748 1592 1401 951 820 692 622 533 447 323 220 35 47 160 330 288 175 6 0 0 0 0 0 0 0 0 0 0 0 0 26 17 0 0 5 139 232 314 315 307 299 268 210 0 0 1 28 18 31 77 13 0 0 0 12 57 304 825 1354 1277 1063 908 1014 952 890 977 984 809 813 892 988 1020 946
3180 3272 3069 2839 2747 2617 2428 2362 2230 2269 2258 2188 1731 1537 1259 931 777 680 572 430 282 132 52 42 57 113 151 0 0 0 0 0 0 0 0 0 0 0 0 0 0 5 14 25 36 0 0 0 0 0 0 1 0 0 0 0 0 4 78 112 85 37 0 0 0 94 0 18 278 978 1120 921 1015 933 730 600 645 694 669 686 710 706 712 701 539
3204 3000 2794 2768 2587 2455 2336 2316 2335 2270 2168 2011 1727 1420 1036 892 798 678 513 370 201 198 175 160 168 158 39 0 0 0 2 2 0 0 0 0 0 0 0 0 0 1 0 28 38 18 0 0 0 0 0 0 0 0 0 0 0 1 12 22 47 53 0 0 0 0 0 0 476 856 810 805 733 580 198 190 237 493 468 294 118 332 117 481 296
3041 2872 2693 2676 2534 2472 2342 2145 2056 1890 1578 1530 1336 1160 1032 906 758 624 528 430 233 142 150 65 55 1 0 0 0 0 0 19 0 0 0 0 0 0 0 0 0 0 0 1 0 10 0 0 0 0 0 0 0 0 0 1 2 1 24 25 16 0 0 0 0 242 336 560 752 723 549 600 539 46 509 0 87 90 12 0 0 0 1 2 3
2963 2757 2515 2489 2404 2377 2251 1994 1829 1749 1553 1440 1323 1228 1094 952 790 671 568 402 218 29 1 0 0 0 0 0 0 0 0 0 0 0 0 0 0 0 0 0 0 0 0 0 0 0 0 0 0 0 0 0 0 0 0 0 0 1 3 1 2 12 70 174 237 351 449 582 602 486 445 328 299 259 93 0 0 0 0 0 0 0 0 0 16
2942 2665 2315 2228 2306 2346 2258 2075 1976 1877 1714 1584 1456 1288 1125 941 820 650 448 82 14 243 5 11 0 0 0 0 0 0 0 0 3 2 0 0 0 0 0 0 0 0 0 0 0 0 0 0 0 0 0 0 0 0 0 4 8 13 16 11 12 10 62 130 203 265 284 260 262 326 384 302 237 125 0 0 95 0 0 0 0 0 0 0 0
2499 2385 2211 2087 2166 2322 2262 2154 2040 1937 1804 1631 1378 1195 1019 865 652 385 260 15 34 27 20 12 4 2 0 97 79 46 4 32 17 4 4 11 0 0 0 0 0 0 0 0 0 0 0 0 0 0 0 0 0 0 0 21 21 16 21 22 8 17 26 42 104 115 100 111 76 90 133 263 268 182 190 165 87 65 48 14 0 0 0 0 0
2153 1999 1833 1670 1803 2063 2136 2053 1935 1765 1568 1322 1115 919 722 596 488 422 345 0 8 16 76 85 14 15 29 0 0 0 0 0 0 5 17 4 6 0 0 0 0 0 0 0 0 0 0 0 0 0 0 0 0 0 2 6 15 48 4 0 9 12 12 13 18 29 41 71 84 85 57 65 62 51 44 49 57 58 29 17 23 18 15 2 0
2194 2046 1897 1737 1699 1812 1987 1876 1712 1534 1299 1165 984 796 707 632 528 311 0 0 3 33 67 128 41 24 2 0 0 0 0 0 0 0 0 5 0 0 0 0 0 0 0 0 0 0 0 0 0 0 0 0 4 8 9 15 192 8 0 2 7 11 21 26 10 11 9 6 6 3 4 5 5 5 4 5 9 15 15 33 29 19 15 8 1
2129 2016 1864 1791 1782 1770 1744 1620 1448 1338 1218 1102 916 819 682 544 200 12 31 4 0 9 11 19 40 0 0 0 0 0 0 0 0 0 0 0 0 0 0 0 0 0 0 0 0 0 0 0 0 0 0 0 4 7 8 29 9 4 0 0 0 0 0 0 0 0 2 6 8 11 10 10 10 11 12 18 22 24 20 21 18 12 4 2 2
2324 2011 1923 1832 1762 1689 1596 1484 1330 1228 1127 1027 929 754 590 462 0 3 0 0 0 5 20 10 35 0 0 0 5 25 16 1 0 0 0 0 0 0 0 0 0 0 0 0 0 0 0 0 0 0 0 0 0 3 11 17 8 0 0 0 0 0 0 0 0 0 1 2 3 3 4 6 4 4 6 6 2 2 1 0 0 3 2 5 5
2455 2157 2011 1945 1789 1731 1626 1562 1455 1274 1128 1028 950 734 610 478 473 242 380 84 0 0 0 0 0 0 0 0 0 0 0 0 0 0 0 0 0 0 0 0 0 0 0 0 0 0 0 0 0 0 0 0 0 8 10 19 7 1 0 0 0 0 0 0 0 0 0 0 0 0 0 0 1 1 2 5 4 3 1 0 0 5 9 11 5
2553 2493 2272 2075 1865 1674 1649 1604 1541 1438 1298 1042 888 762 644 590 82 0 219 0 0 0 0 0 0 0 0 0 0 0 0 0 0 0 0 0 0 0 0 0 0 0 0 0 0 0 0 0 0 0 0 0 0 1 2 4 2 0 0 0 0 0 0 0 0 0 0 0 0 0 0 1 1 0 0 0 0 0 0 0 1 4 4 5 2
2662 2600 2464 2206 2021 1927 1774 1608 1542 1452 1372 1239 1070 919 844 728 587 351 23 386 0 0 0 0 0 0 0 0 0 0 0 0 0 0 0 0 0 0 0 0 0 0 0 0 0 0 0 0 0 0 0 0 0 0 0 0 0 0 0 0 0 0 0 0 0 0 0 0 0 0 0 0 0 0 0 0 0 0 0 0 0 0 0 0 0
2460 2691 2637 2399 2160 1974 1876 1844 1725 1627 1555 1481 1347 1118 887 860 790 674 559 0 0 0 0 0 0 0 0 0 0 0 0 0 0 0 0 0 0 0 0 0 0 0 0 0 0 0 0 0 0 0 0 0 0 0 0 0 0 0 0 0 0 0 0 0 0 0 0 0 0 0 0 0 0 0 0 0 0 0 0 0 0 0 0 0 0
1680 1906 2294 2476 2284 2074 1926 1743 1662 1661 1498 1369 1322 1222 1044 917 842 805 741 625 578 609 0 0 0 0 0 0 0 0 0 0 0 0 0 0 0 0 0 0 0 0 0 0 0 0 0 0 0 0 0 0 0 0 0 0 0 0 0 0 0 0 0 0 0 0 0 0 0 0 0 0 0 0 0 0 0 0 0 0 0 0 0 0 0
1546 1557 1705 1923 2212 2246 2039 1842 1619 1448 1326 1237 1158 1064 956 986 916 815 708 698 709 762 710 138 0 0 0 0 0 0 0 0 0 0 0 0 0 0 0 0 0 0 0 0 0 0 0 0 0 0 0 0 0 0 0 0 0 0 0 0 0 0 0 0 0 0 0 0 0 0 0 0 0 0 0 0 0 0 0 0 0 0 0 0 0
1865 1860 1785 1734 1854 1940 1998 1936 1710 1512 1544 1316 1133 1076 970 894 931 819 695 703 766 884 734 231 0 0 0 0 0 0 0 0 0 0 0 0 0 0 0 0 0 0 0 0 0 0 0 0 0 0 0 0 0 0 0 0 0 0 0 0 0 0 0 0 0 0 0 0 0 0 0 0 0 0 0 0 0 0 0 0 0 0 0 0 0
1848 1854 1830 1822 1812 1754 1776 1888 1862 1754 1622 1551 1494 1245 1197 1095 939 768 801 729 805 915 972 984 782 418 0 0 0 0 0 0 0 0 0 0 0 0 0 0 0 0 0 0 0 0 0 0 0 0 0 0 0 0 0 0 0 0 0 0 0 0 0 0 0 0 0 0 0 0 0 0 0 0 0 0 0 0 0 0 0 0 0 0 0
1434 1536 1519 1596 1773 1882 1898 1830 1727 1688 1540 1624 1726 1652 1446 1148 1069 959 874 753 828 936 971 982 985 955 638 255 0 1 0 0 0 0 0 0 0 0 0 0 0 0 0 0 0 0 0 0 0 0 0 0 0 0 0 0 0 0 0 0 0 0 0 0 0 0 0 0 0 0 0 7 10 9 7 4 0 0 0 0 0 0 0 0 0
1499 1610 1623 1588 1617 1788 1968 2047 2070 1991 1936 1936 1894 1858 1775 1571 1321 1074 943 871 933 1036 981 974 1024 1061 1044 990 871 367 21 0 0 0 0 0 0 0 0 0 0 0 0 0 0 0 0 0 0 0 0 0 0 0 0 0 0 0 0 0 0 0 0 0 0 0 0 0 0 0 0 9 12 14 9 8 8 5 0 0 0 0 0 0 0
1072 1446 1963 1786 1879 1905 1978 2096 2156 2168 2160 2076 2045 2003 1946 1883 1692 1462 1285 1114 943 1068 1089 1124 1154 1183 1207 1254 1234 1130 666 352 141 0 0 0 0 0 0 0 0 0 0 0 0 0 0 0 0 0 0 0 0 0 0 0 0 0 0 0 0 0 0 0 0 0 0 0 0 0 0 0 5 8 10 10 13 12 8 4 0 0 0 0 0
1319 1216 1124 1366 1635 1792 1924 2042 2120 2216 2233 2196 2093 2059 1989 1866 1801 1549 1291 1198 1009 1071 1189 1372 1440 1345 1280 1241 1198 1115 932 606 424 123 0 0 0 0 0 0 0 0 0 0 0 0 0 0 0 0 0 0 0 0 0 0 0 0 0 0 0 0 0 0 0 0 0 0 0 0 0 0 0 0 0 0 8 14 15 12 7 0 0 0 0
1258 1172 1173 1202 1201 1277 1480 1726 1936 2040 2095 2110 2122 2073 2014 1920 1684 1438 1292 1315 1326 1240 1252 1380 1264 1256 1146 1062 961 937 842 613 410 210 0 0 0 0 0 0 0 0 0 0 0 0 0 0 0 0 0 0 0 0 0 0 0 0 0 0 0 0 0 0 0 0 0 0 0 0 0 0 0 0 0 0 0 0 0 0 0 0 0 0 0
1213 1188 1243 1274 1272 1294 1380 1465 1575 1666 1717 1781 1888 1926 1924 1885 1794 1601 1537 1543 1434 1292 1297 1336 1314 1253 1201 1105 919 826 733 525 66 108 0 0 0 0 0 0 0 0 0 0 0 0 0 0 0 0 0 0 0 0 0 0 0 0 0 0 0 0 0 0 0 0 0 0 0 0 0 0 0 0 0 0 0 0 0 0 0 0 0 0 0
1296 1248 1263 1246 1197 1266 1390 1493 1569 1583 1598 1637 1701 1774 1806 1791 1733 1627 1562 1561 1539 1525 1468 1447 1404 1391 1374 1246 1045 869 648 497 387 364 351 327 0 0 0 0 0 0 0 0 0 0 0 0 0 0 0 0 0 0 0 0 0 0 0 0 0 0 0 0 0 0 0 0 0 0 0 0 0 0 0 0 0 0 0 0 0 0 0 0 0
1117 1066 1081 1089 1015 914 1102 1302 1428 1522 1600 1623 1637 1673 1705 1695 1644 1632 1621 1615 1593 1578 1527 1468 1406 1372 1325 1246 1122 991 828 690 520 360 355 346 319 0 0 0 0 0 0 0 0 0 0 0 0 0 0 0 0 0 0 0 0 0 0 0 0 0 0 0 0 0 0 0 0 0 0 0 0 0 0 0 0 0 0 0 0 0 0 0 0
1368 1185 1080 986 900 841 799 954 1245 1448 1587 1672 1685 1686 1678 1663 1651 1550 1479 1474 1482 1460 1462 1446 1417 1336 1238 1230 1205 1079 871 685 556 390 349 349 348 194 0 0 0 0 0 0 0 0 0 0 0 0 0 0 0 0 0 0 0 0 0 0 0 0 0 0 0 0 0 0 0 0 0 0 1 0 0 6 0 0 0 0 0 0 0 0 0
1156 1133 1002 897 750 822 775 659 889 1341 1463 1547 1640 1696 1722 1664 1533 1412 1288 1392 1385 1378 1387 1400 1406 1360 1282 1258 1242 1132 962 806 598 297 314 324 345 283 0 0 0 0 0 0 0 0 0 0 0 0 0 0 0 0 0 0 0 0 0 0 0 0 0 0 0 0 0 0 0 0 0 0 0 0 0 1 2 0 0 0 0 0 0 0 0
830 781 764 842 887 886 832 750 667 724 1030 1297 1447 1536 1574 1608 1574 1521 1431 1386 1328 1315 1322 1335 1357 1341 1293 1237 1148 1064 970 880 562 237 239 262 272 0 0 0 0 0 0 0 0 0 0 0 0 0 0 0 0 0 0 0 0 0 0 0 0 0 0 0 0 0 0 0 0 0 0 0 0 0 0 0 0 0 0 0 0 0 0 0 0
817 770 689 740 787 747 743 774 774 767 776 897 1147 1278 1353 1402 1425 1426 1424 1396 1332 1228 1153 1197 1231 1257 1237 1124 1037 961 1036 918 619 297 135 0 0 0 0 0 0 0 0 0 0 0 0 0 0 0 0 0 0 0 0 0 0 0 0 0 0 0 0 1 1 0 0 0 0 0 0 0 0 0 0 0 0 0 0 0 0 0 0 0 0
736 781 836 799 747 730 745 767 793 773 777 829 969 1081 1154 1214 1255 1268 1274 1268 1240 1169 1144 1182 1211 1172 1105 1103 1056 854 849 801 629 421 0 0 0 0 0 0 0 0 0 0 0 0 0 0 0 0 0 0 0 0 0 0 0 0 0 0 1 2 1 1 0 0 0 0 0 0 0 0 0 0 0 0 0 0 0 0 0 0 0 0 0
Wind_Speed
21 22 23 24 25 22 21 22 21 20 19 17 15 14 15 16 16 15 16 13 13 12 11 11 12 12 12 11 11 12 12 12 12 11 10 9 8 6 6 6 6 6 8 8 9 9 9 9 9 8 9 10 10 10 8 7 6 5 5 5 4 3 4 3 4 2 7 6 7 7 10 12 10 11 14 15 15 14 15 14 12 11 11 11 11
21 23 23 24 25 24 23 23 22 21 20 17 15 15 15 15 16 17 15 14 13 11 10 10 12 14 15 13 12 12 12 12 13 13 12 11 9 7 6 7 7 8 9 8 8 9 10 9 8 8 9 10 10 10 9 9 8 7 6 5 4 4 5 6 4 6 3 9 8 11 11 11 12 12 15 17 15 16 17 16 14 13 13 12 12
20 22 22 23 23 25 26 25 23 21 21 19 16 16 16 16 16 15 15 15 14 13 12 11 12 15 17 18 17 15 13 12 12 12 11 10 9 7 7 7 7 7 8 7 8 9 9 9 9 9 11 12 11 9 9 9 9 8 7 7 8 9 9 7 8 6 5 6 10 11 11 12 14 14 16 18 18 17 18 17 16 15 14 14 14
19 19 20 20 24 28 26 26 25 24 23 22 19 17 17 16 15 14 15 16 16 15 14 14 17 17 17 18 17 16 14 11 10 10 10 10 9 8 8 8 8 8 8 8 9 9 9 10 9 10 12 12 10 9 8 8 8 8 8 8 10 10 10 11 9 7 8 8 9 10 13 15 16 18 19 20 20 18 17 17 17 16 16 16 16
17 18 22 30 35 33 30 30 29 28 25 22 19 18 16 16 15 15 17 17 17 16 14 15 16 16 16 15 15 15 13 12 10 10 11 11 10 10 9 9 9 10 10 10 9 10 11 10 10 11 12 11 10 9 9 9 9 9 7 8 10 11 11 12 12 12 12 10 10 14 16 17 18 18 18 20 18 18 17 17 18 17 15 16 17
16 19 25 26 21 18 23 31 30 26 23 21 20 19 17 16 16 17 19 18 18 16 14 13 14 14 15 15 15 15 13 12 11 11 11 11 11 10 10 10 10 10 9 9 9 11 11 11 11 12 13 12 10 11 11 10 10 9 10 11 12 13 13 12 13 14 14 12 13 14 16 19 20 20 17 17 19 18 18 18 19 18 16 17 17
15 17 19 21 17 13 18 23 26 24 22 22 23 22 20 18 17 18 20 20 18 15 15 15 16 15 14 13 14 15 15 13 12 11 12 11 11 10 9 10 10 10 10 9 10 11 12 13 14 14 13 12 12 11 11 11 11 11 11 11 13 13 12 12 13 14 14 15 14 14 16 18 21 23 21 17 16 18 21 20 17 20 20 20 20
13 14 16 18 16 12 11 15 19 22 24 24 21 19 19 18 17 20 21 18 14 13 14 16 16 15 13 13 13 14 15 15 13 12 12 11 11 10 9 10 11 12 11 11 11 12 13 13 13 14 14 13 13 12 12 10 11 10 9 12 13 14 13 12 13 14 15 16 16 16 17 20 25 25 22 17 18 19 19 19 20 22 23 22 21
12 13 14 14 13 12 12 16 20 20 19 19 17 15 13 14 17 19 15 13 11 11 14 16 16 14 13 12 13 16 17 15 14 14 12 12 11 10 10 11 12 12 12 13 13 13 13 12 13 14 15 10 7 7 7 7 10 10 11 14 14 15 13 14 13 14 15 17 16 16 19 25 24 25 21 18 20 20 22 20 19 21 23 24 22
13 12 11 11 13 16 17 18 18 17 16 13 11 11 13 15 16 13 10 9 10 13 13 12 13 13 13 12 12 14 17 18 13 10 11 13 12 10 11 13 14 14 14 13 13 13 11 11 12 9 9 9 9 7 4 6 10 12 14 17 16 14 14 13 13 12 13 13 13 17 19 22 24 23 21 17 17 20 21 22 20 23 23 22 23
11 11 9 12 15 17 16 16 16 14 14 13 10 10 12 13 12 9 8 9 10 10 10 10 11 12 12 12 12 14 17 19 20 21 16 9 10 10 12 13 13 13 13 11 11 11 10 11 12 11 10 10 12 10 5 6 8 7 6 8 10 12 11 11 12 13 13 13 15 17 18 19 22 21 21 20 18 20 20 21 23 25 23 24 22
7 8 10 11 13 12 12 13 13 13 15 13 12 9 7 5 6 5 6 7 9 9 9 9 10 10 10 10 12 14 17 19 20 19 17 13 10 12 13 14 11 9 11 10 10 10 10 11 13 13 12 13 15 11 6 4 5 5 6 6 7 6 6 11 12 12 13 13 15 16 19 20 22 25 24 23 20 20 20 22 23 25 24 22 21
8 9 10 10 9 9 11 11 11 11 12 15 13 9 6 3 2 3 3 6 7 7 7 8 9 9 9 9 11 14 15 16 17 16 14 13 13 14 13 13 13 12 11 10 9 8 9 10 10 10 11 7 9 9 10 11 9 9 9 11 10 10 10 11 11 11 13 13 14 16 18 20 24 26 26 25 24 24 23 22 21 23 23 21 21
9 9 9 9 9 9 9 8 8 9 12 11 7 7 6 4 4 5 6 6 7 9 9 10 10 7 9 11 14 15 15 17 17 16 15 15 14 13 13 13 13 11 10 9 8 6 6 6 7 7 9 11 13 11 13 15 17 17 11 13 14 13 12 14 14 10 11 14 16 16 20 23 23 27 26 25 28 27 27 24 23 22 23 22 21
10 9 8 8 8 7 7 6 6 6 7 6 5 4 3 4 3 4 4 4 5 6 7 7 8 10 8 9 10 12 14 16 16 17 17 17 17 15 15 14 14 13 12 10 9 7 5 6 8 8 11 13 13 13 15 16 17 16 16 16 15 15 15 16 15 15 18 19 19 19 21 24 24 28 31 24 24 26 29 27 26 26 23 21 23
10 11 9 7 6 5 4 5 4 3 2 3 3 3 3 4 3 4 5 4 5 6 7 5 4 4 6 7 8 9 11 14 15 17 17 18 18 15 14 15 14 14 13 12 12 11 10 10 12 14 16 17 18 19 17 18 18 18 16 16 16 17 17 18 18 21 24 23 23 24 24 26 29 29 32 30 25 25 27 29 31 32 28 25 25
8 8 9 8 7 6 6 5 4 3 2 3 3 3 4 5 6 5 5 5 5 4 5 7 7 6 6 7 7 8 9 12 15 16 17 18 17 16 nan nan 15 14 13 12 14 14 16 17 17 19 19 19 19 17 17 19 19 18 18 17 17 18 17 16 16 20 22 22 22 24 24 26 27 27 32 34 30 30 31 31 30 33 32 27 27
6 6 6 6 6 5 5 5 4 3 3 3 2 2 2 3 4 4 3 4 4 6 7 7 7 7 7 6 6 7 8 10 12 nan nan nan nan nan nan nan nan nan nan nan 16 18 21 26 22 20 20 19 18 18 18 18 19 18 18 18 17 16 16 17 18 19 19 21 21 23 24 24 25 26 30 29 29 31 33 31 31 34 30 29 27
4 4 4 3 3 4 4 5 5 5 5 4 3 4 3 2 2 4 5 7 7 7 9 10 9 8 8 7 8 9 9 10 13 15 nan nan nan nan nan nan nan nan nan nan nan 21 20 21 24 22 20 19 19 19 19 18 17 17 nan nan nan nan 17 nan nan nan nan nan 23 26 23 22 25 27 30 33 30 31 31 29 31 31 28 27 26
4 3 3 1 1 3 4 7 7 8 8 7 6 7 6 7 6 7 8 9 8 8 10 nan nan 9 9 9 9 nan nan nan nan nan nan nan nan nan nan nan nan nan nan nan nan nan nan 18 20 21 19 18 17 18 19 nan nan nan nan nan nan nan nan nan nan nan nan nan 19 21 25 24 25 26 26 27 29 29 31 30 31 30 28 26 28
4 3 2 1 0 2 4 6 9 9 10 11 10 9 9 9 9 9 10 11 11 11 nan nan nan 12 11 nan nan nan nan nan nan nan nan nan nan nan nan nan nan nan nan nan nan nan nan nan nan nan nan nan nan nan nan nan nan nan nan 18 nan nan nan nan nan nan nan nan 21 23 27 26 26 26 29 30 30 29 29 29 29 28 26 25 25
5 4 2 1 1 1 1 3 7 9 10 12 12 11 9 10 10 10 11 12 12 12 12 13 14 13 nan nan nan nan nan nan nan nan nan nan nan nan nan nan nan nan nan nan nan nan nan nan nan nan nan nan nan nan nan nan nan nan nan nan nan nan nan nan nan nan nan nan 22 26 27 27 27 27 28 30 31 30 29 28 27 27 26 24 23
7 6 5 3 2 1 1 2 5 6 9 11 13 12 11 12 12 12 13 13 14 13 13 nan nan nan nan nan nan nan nan nan nan nan nan nan nan nan nan nan nan nan nan nan nan nan nan nan nan nan nan nan nan nan nan nan nan nan nan nan nan nan nan nan nan 16 19 22 26 27 27 27 27 nan 27 nan nan nan nan nan nan nan nan nan nan
8 8 8 6 4 3 2 3 5 6 9 10 12 13 12 13 13 14 14 14 15 nan nan nan nan nan nan nan nan nan nan nan nan nan nan nan nan nan nan nan nan nan nan nan nan nan nan nan nan nan nan nan nan nan nan nan nan nan nan nan nan nan nan 19 19 21 23 25 26 26 27 27 26 26 nan nan nan nan nan nan nan nan nan nan nan
7 8 10 11 9 8 6 4 4 5 6 9 10 11 11 12 13 11 14 nan nan 13 nan nan nan nan nan nan nan nan nan nan nan nan nan nan nan nan nan nan nan nan nan nan nan nan nan nan nan nan nan nan nan nan nan nan nan nan nan nan nan nan nan 19 20 22 24 25 25 26 26 25 25 26 nan nan nan nan nan nan nan nan nan nan nan
8 8 10 12 12 12 8 6 4 3 4 5 8 9 11 11 12 11 13 nan nan nan nan nan nan nan nan nan nan nan nan nan nan nan nan nan nan nan nan nan nan nan nan nan nan nan nan nan nan nan nan nan nan nan nan nan nan nan nan nan nan nan nan nan 20 23 nan 24 nan nan 26 26 26 27 27 27 nan nan nan nan nan nan nan nan nan
8 9 8 9 10 10 8 8 8 5 3 4 6 8 9 11 12 13 14 nan nan nan nan nan nan nan nan nan nan nan nan nan nan nan nan nan nan nan nan nan nan nan nan nan nan nan nan nan nan nan nan nan nan nan nan nan nan nan nan nan nan nan nan nan nan nan nan nan nan nan nan nan nan nan nan nan nan nan nan nan nan nan nan nan nan
8 7 7 8 7 7 6 4 5 7 7 5 5 6 8 11 13 14 nan nan nan nan nan 16 nan nan nan nan nan nan nan nan nan nan nan nan nan nan nan nan nan nan nan nan nan nan nan nan nan nan nan nan nan nan nan nan 22 nan nan nan nan nan nan nan nan nan nan nan nan nan nan nan nan nan nan nan nan nan nan nan nan nan nan nan nan
11 10 9 8 5 6 5 6 6 5 5 6 6 7 7 9 13 nan nan nan nan nan nan nan nan nan nan nan nan nan nan nan nan nan nan nan nan nan nan nan nan nan nan nan nan nan nan nan nan nan nan nan nan nan nan nan nan nan nan nan nan nan nan nan nan nan nan nan nan nan nan nan nan nan nan nan nan nan nan nan nan nan nan nan nan
10 11 12 11 9 8 7 7 7 7 9 9 10 10 16 19 nan nan nan nan nan nan nan nan nan nan nan nan nan nan nan nan nan nan nan nan nan nan nan nan nan nan nan nan nan nan nan nan nan nan nan nan nan nan nan nan nan nan nan nan nan nan nan nan nan nan nan nan nan nan nan nan nan nan nan nan nan nan nan nan nan nan nan nan nan
13 10 12 12 12 11 11 10 10 11 12 12 12 13 13 15 23 27 24 nan nan nan nan nan nan nan nan nan nan nan nan nan nan nan nan nan nan nan nan nan nan nan nan nan nan nan nan nan nan nan nan nan nan nan nan nan nan nan nan nan nan nan nan nan nan nan nan nan nan nan nan nan nan nan nan nan nan nan nan nan nan nan nan nan nan
17 15 13 12 12 12 11 12 14 15 15 16 16 14 15 16 nan nan 25 nan nan nan nan nan nan nan nan nan nan nan nan nan nan nan nan nan nan nan nan nan nan nan nan nan nan nan nan nan nan nan nan nan nan nan nan nan nan nan nan nan nan nan nan nan nan nan nan nan nan nan nan nan nan nan nan nan nan nan nan nan nan nan nan nan nan
16 17 18 18 16 13 11 10 13 16 17 19 18 17 18 19 19 17 nan 23 nan nan nan nan nan nan nan nan nan nan nan nan nan nan nan nan nan nan nan nan nan nan nan nan nan nan nan nan nan nan nan nan nan nan nan nan nan nan nan nan nan nan nan nan nan nan nan nan nan nan nan nan nan nan nan nan nan nan nan nan nan nan nan nan nan
16 17 19 19 19 20 19 18 16 16 17 18 18 17 17 19 20 23 23 nan nan nan nan nan nan nan nan nan nan nan nan nan nan nan nan nan nan nan nan nan nan nan nan nan nan nan nan nan nan nan nan nan nan nan nan nan nan nan nan nan nan nan nan nan nan nan nan nan nan nan nan nan nan nan nan nan nan nan nan nan nan nan nan nan nan
24 21 19 19 21 20 21 21 20 21 20 21 21 20 20 19 21 23 23 23 22 21 nan nan nan nan nan nan nan nan nan nan nan nan nan nan nan nan nan nan nan nan nan nan nan nan nan nan nan nan nan nan nan nan nan nan nan nan nan nan nan nan nan nan nan nan nan nan nan nan nan nan nan nan nan nan nan nan nan nan nan nan nan nan nan
30 29 28 26 25 24 24 24 24 23 23 21 21 23 23 23 23 22 22 24 25 25 26 27 nan nan nan nan nan nan nan nan nan nan nan nan nan nan nan nan nan nan nan nan nan nan nan nan nan nan nan nan nan nan nan nan nan nan nan nan nan nan nan nan nan nan nan nan nan nan nan nan nan nan nan nan nan nan nan nan nan nan nan nan nan
34 33 32 30 29 28 27 26 26 27 27 27 27 25 25 25 25 25 25 25 24 25 28 32 nan nan nan nan nan nan nan nan nan nan nan nan nan nan nan nan nan nan nan nan nan nan nan nan nan nan nan nan nan nan nan nan nan nan nan nan nan nan nan nan nan nan nan nan nan nan nan nan nan nan nan nan nan nan nan nan nan nan nan nan nan
38 35 34 34 34 32 32 31 29 28 29 30 29 29 27 26 26 27 28 27 27 29 30 31 32 33 nan nan nan nan nan nan nan nan nan nan nan nan nan nan nan nan nan nan nan nan nan nan nan nan nan nan nan nan nan nan nan nan nan nan nan nan nan nan nan nan nan nan nan nan nan nan nan nan nan nan nan nan nan nan nan nan nan nan nan
39 36 33 33 34 34 34 35 34 33 31 31 30 30 30 28 27 27 27 28 30 31 32 33 32 31 32 36 nan nan nan nan nan nan nan nan nan nan nan nan nan nan nan nan nan nan nan nan nan nan nan nan nan nan nan nan nan nan nan nan nan nan nan nan nan nan nan nan nan nan nan nan nan nan nan nan nan nan nan nan nan nan nan nan nan
38 38 36 33 35 35 36 36 36 36 35 33 31 31 30 29 28 28 28 30 31 33 34 33 30 27 31 34 34 36 nan nan nan nan nan nan nan nan nan nan nan nan nan nan nan nan nan nan nan nan nan nan nan nan nan nan nan nan nan nan nan nan nan nan nan nan nan nan nan nan nan nan nan nan nan nan nan nan nan nan nan nan nan nan nan
35 36 36 36 35 34 34 35 36 36 36 35 34 33 31 30 29 29 31 32 33 33 32 32 29 28 28 25 29 34 34 33 33 nan nan nan nan nan nan nan nan nan nan nan nan nan nan nan nan nan nan nan nan nan nan nan nan nan nan nan nan nan nan nan nan nan nan nan nan nan nan nan nan nan nan nan nan nan nan nan nan nan nan nan nan
33 34 34 34 34 34 34 33 34 34 36 36 35 33 32 31 31 33 38 40 37 33 30 31 31 31 28 28 34 37 35 33 35 35 nan nan nan nan nan nan nan nan nan nan nan nan nan nan nan nan nan nan nan nan nan nan nan nan nan nan nan nan nan nan nan nan nan nan nan nan nan nan nan nan nan nan nan nan nan nan nan nan nan nan nan
32 33 33 33 33 33 33 32 33 34 35 35 35 35 34 34 35 38 38 35 32 31 29 29 31 35 36 36 39 41 37 37 36 36 nan nan nan nan nan nan nan nan nan nan nan nan nan nan nan nan nan nan nan nan nan nan nan nan nan nan nan nan nan nan nan nan nan nan nan nan nan nan nan nan nan nan nan nan nan nan nan nan nan nan nan
33 34 34 33 32 33 33 33 33 34 35 35 35 36 36 36 39 39 36 33 31 31 30 31 34 37 40 43 45 44 39 39 nan 38 nan nan nan nan nan nan nan nan nan nan nan nan nan nan nan nan nan nan nan nan nan nan nan nan nan nan nan nan nan nan nan nan nan nan nan nan nan nan nan nan nan nan nan nan nan nan nan nan nan nan nan
34 34 34 34 33 34 33 34 34 35 35 37 38 38 38 38 39 38 37 36 35 34 34 34 35 37 40 44 44 41 39 39 40 41 41 41 nan nan nan nan nan nan nan nan nan nan nan nan nan nan nan nan nan nan nan nan nan nan nan nan nan nan nan nan nan nan nan nan nan nan nan nan nan nan nan nan nan nan nan nan nan nan nan nan nan
32 33 35 34 34 35 35 35 37 36 37 38 39 39 39 39 39 39 39 38 38 38 38 36 35 34 35 37 38 38 38 39 41 42 43 43 42 nan nan nan nan nan nan nan nan nan nan nan nan nan nan nan nan nan nan nan nan nan nan nan nan nan nan nan nan nan nan nan nan nan nan nan nan nan nan nan nan nan nan nan nan nan nan nan nan
32 33 34 35 34 36 36 38 39 39 38 39 40 40 41 40 39 40 41 40 40 41 40 39 39 38 37 37 38 38 40 41 41 43 42 41 42 43 nan nan nan nan nan nan nan nan nan nan nan nan nan nan nan nan nan nan nan nan nan nan nan nan nan nan nan nan nan nan nan nan nan nan nan nan nan nan nan nan nan nan nan nan nan nan nan
32 33 34 35 36 36 37 39 39 39 39 39 39 40 41 43 43 42 41 42 42 43 43 44 45 45 44 42 41 41 41 41 42 42 42 41 41 41 nan nan nan nan nan nan nan nan nan nan nan nan nan nan nan nan nan nan nan nan nan nan nan nan nan nan nan nan nan nan nan nan nan nan nan nan nan nan nan nan nan nan nan nan nan nan nan
32 33 34 35 37 37 36 37 38 38 37 37 38 39 41 42 42 41 42 43 44 44 45 45 46 49 49 47 44 40 39 40 40 41 41 39 39 nan nan nan nan nan nan nan nan nan nan nan nan nan nan nan nan nan nan nan nan nan nan nan nan nan nan nan nan nan nan nan nan nan nan nan nan nan nan nan nan nan nan nan nan nan nan nan nan
30 31 32 34 34 34 35 36 36 36 36 36 37 38 39 40 41 42 43 44 45 45 44 45 47 47 48 47 42 38 38 37 37 38 38 nan nan nan nan nan nan nan nan nan nan nan nan nan nan nan nan nan nan nan nan nan nan nan nan nan nan nan nan nan nan nan nan nan nan nan nan nan nan nan nan nan nan nan nan nan nan nan nan nan nan
30 30 30 30 31 32 33 33 33 34 35 37 38 40 42 43 44 45 45 45 44 41 41 43 46 48 46 42 40 37 35 35 35 35 nan nan nan nan nan nan nan nan nan nan nan nan nan nan nan nan nan nan nan nan nan nan nan nan nan nan nan nan nan nan nan nan nan nan nan nan nan nan nan nan nan nan nan nan nan nan nan nan nan nan nan
Wind_Direction
259 258 253 250 253 254 252 253 257 259 262 264 270 271 264 259 261 264 264 273 274 269 264 262 266 272 276 280 284 279 276 271 267 266 268 266 256 243 235 241 236 224 226 220 227 230 229 223 216 213 218 210 201 200 209 223 221 206 189 192 193 206 246 264 265 201 205 237 255 254 259 270 275 277 270 265 267 263 261 262 268 271 273 279 282
262 262 259 254 255 254 254 252 254 256 261 261 261 262 258 256 257 260 267 269 272 275 272 266 264 266 267 267 262 257 257 256 256 260 265 264 258 247 240 239 234 224 227 225 228 230 228 221 214 217 227 224 215 204 207 207 219 221 224 230 221 219 260 258 232 244 218 231 240 249 263 272 276 271 282 278 273 261 259 266 266 266 276 279 284
260 262 263 258 253 251 252 251 252 256 258 254 254 255 255 257 259 264 267 267 269 269 266 263 259 257 256 253 246 241 241 243 249 259 262 264 262 252 243 242 243 236 233 231 230 233 228 225 218 225 231 228 224 217 216 214 218 218 214 234 234 232 234 250 255 246 246 243 258 260 268 273 272 273 270 276 281 279 277 274 272 267 272 279 280
260 263 262 257 247 244 248 246 249 251 252 247 250 252 254 258 260 264 266 267 268 266 262 257 254 257 257 252 249 243 242 238 241 253 260 260 261 261 251 245 244 243 241 236 236 241 238 231 229 234 237 236 228 222 225 226 221 221 226 241 252 244 240 248 263 267 259 258 259 279 271 279 260 262 265 268 276 279 281 276 273 276 274 277 281
260 257 250 243 240 232 232 242 244 245 246 246 251 256 258 259 261 263 263 264 264 265 260 254 257 262 263 258 248 243 239 233 232 240 248 252 257 259 254 249 245 241 240 241 244 250 248 250 246 246 249 247 235 234 240 238 236 235 240 253 260 259 258 258 257 263 269 276 270 264 269 264 262 264 274 280 277 279 282 281 278 280 278 282 285
258 254 252 259 265 257 241 243 242 239 245 244 248 255 257 259 263 261 262 262 260 262 264 259 261 263 264 262 252 243 237 229 225 233 245 249 250 248 246 246 243 239 237 242 245 248 255 257 254 254 256 255 244 242 246 246 243 244 249 254 260 266 265 262 260 261 267 273 277 272 272 279 269 266 268 271 289 288 282 276 276 281 286 285 285
263 259 254 262 276 275 256 246 243 240 244 247 246 249 251 251 257 259 257 258 258 261 260 259 255 260 263 265 256 244 237 234 230 234 242 246 247 245 247 248 245 244 244 245 243 247 254 256 255 255 254 252 246 246 250 253 257 255 254 257 269 267 266 264 266 267 268 270 270 277 279 275 275 275 271 267 271 273 277 285 290 296 298 300 297
263 256 250 249 252 255 246 238 233 234 239 243 244 244 247 247 244 247 252 258 262 263 261 258 257 260 263 265 260 245 233 234 237 238 240 242 242 243 248 248 247 246 244 245 249 253 254 256 257 259 259 252 247 244 252 257 264 263 263 272 273 269 268 268 268 271 272 274 276 281 282 277 264 265 266 278 282 278 286 298 309 305 303 298 297
249 243 238 236 234 231 226 222 225 232 237 241 241 243 251 253 246 243 248 258 260 259 255 256 260 263 262 259 252 238 230 232 237 238 238 238 241 247 254 250 248 245 242 241 245 248 252 256 258 258 258 252 242 247 261 275 269 267 268 274 274 274 269 271 279 275 272 274 272 274 280 277 280 284 291 289 290 292 290 297 293 288 291 296 297
237 233 231 228 225 223 223 222 225 228 233 243 248 257 255 244 241 243 244 248 250 250 251 254 259 263 262 258 250 233 223 227 233 244 241 238 241 246 251 250 245 241 238 237 237 240 245 256 260 267 258 246 233 224 221 253 251 253 253 254 255 260 273 280 279 280 280 281 286 287 287 291 296 306 304 299 293 280 282 292 297 290 290 294 298
220 220 216 218 223 225 225 223 225 228 231 237 240 246 239 234 241 244 243 241 246 245 246 250 251 250 248 246 239 224 219 223 235 234 234 234 244 248 252 249 241 240 246 246 245 240 244 252 256 256 258 263 264 253 210 258 293 289 276 275 271 276 271 272 281 287 289 293 290 289 295 299 304 307 303 303 300 303 305 302 300 296 303 304 307
200 200 201 209 221 227 220 218 216 217 220 222 234 234 224 213 240 243 234 228 229 232 238 239 239 236 226 218 214 217 218 225 231 234 236 237 241 246 250 252 251 246 255 254 247 245 245 249 253 259 264 273 274 281 287 280 271 282 286 289 292 301 301 285 276 277 290 293 293 297 297 307 305 303 299 303 311 310 311 310 310 311 309 310 309
168 178 187 193 200 201 198 199 197 203 211 219 223 234 241 219 199 202 201 209 215 216 217 225 223 219 208 202 207 212 213 218 225 231 237 239 237 243 245 241 241 241 246 248 247 249 250 251 251 256 261 268 274 278 279 274 280 296 297 292 297 305 298 305 329 314 294 301 305 304 306 301 300 308 313 316 312 319 313 312 313 312 312 315 318
153 164 173 172 176 177 173 177 187 191 209 213 197 203 197 183 175 168 180 192 193 193 199 204 206 212 204 196 205 206 209 212 212 218 222 227 227 231 233 235 237 236 238 240 236 232 239 251 255 250 253 258 266 270 269 271 271 270 272 283 291 297 310 312 300 308 314 307 305 311 307 303 307 304 309 307 316 321 314 318 316 312 313 326 321
139 148 157 159 161 157 153 162 164 184 195 195 183 171 167 177 174 165 171 178 182 174 185 191 190 212 201 201 205 204 204 208 210 214 216 216 216 226 222 222 221 221 222 225 224 222 233 253 264 264 254 255 259 267 277 278 280 283 293 294 299 298 296 295 305 313 316 317 316 320 318 313 312 305 298 308 323 317 314 315 316 317 314 305 292
125 130 126 124 117 109 105 102 103 129 153 147 137 137 126 121 130 147 160 159 158 164 161 168 190 205 194 198 202 201 191 197 203 207 211 211 215 216 213 213 211 212 214 217 220 221 239 258 261 256 258 258 248 245 264 283 284 291 290 289 291 293 296 296 296 310 319 321 320 317 317 314 313 310 311 316 315 309 304 298 299 302 309 314 312
106 102 96 86 73 60 52 52 60 51 41 56 79 95 108 128 139 140 142 147 172 181 186 184 200 213 205 199 212 200 193 195 205 207 211 211 218 219 nan nan 218 216 218 222 225 234 243 249 256 263 262 263 255 252 255 276 282 284 287 290 294 294 295 294 287 286 295 309 317 319 319 317 316 317 313 317 311 303 300 301 305 304 309 313 309
99 86 83 77 65 49 34 11 6 356 350 13 20 44 110 140 132 146 162 181 186 210 218 217 216 226 225 225 224 231 217 218 224 nan nan nan nan nan nan nan nan nan nan nan 241 241 242 248 253 258 264 264 257 256 253 274 282 286 289 290 290 290 293 290 289 290 287 296 308 308 310 312 308 306 303 308 311 306 301 310 307 304 311 312 312
119 101 90 82 50 31 9 349 336 328 327 327 315 312 306 299 233 210 210 215 216 216 230 240 237 235 240 245 266 253 240 235 239 233 nan nan nan nan nan nan nan nan nan nan nan 251 249 251 254 259 264 264 259 258 255 267 283 287 nan nan nan nan 301 nan nan nan nan nan 285 290 294 297 296 295 300 312 315 318 310 310 302 307 310 310 306
146 155 139 99 24 340 336 332 325 324 323 311 301 295 275 264 263 251 234 237 236 231 235 nan nan 252 252 250 249 nan nan nan nan nan nan nan nan nan nan nan nan nan nan nan nan nan nan 262 261 264 264 265 266 266 267 nan nan nan nan nan nan nan nan nan nan nan nan nan 286 287 296 297 293 295 295 298 305 303 304 303 303 306 308 306 304
162 168 163 143 22 323 324 321 325 323 315 310 301 290 283 277 262 255 248 240 239 238 nan nan nan 253 251 nan nan nan nan nan nan nan nan nan nan nan nan nan nan nan nan nan nan nan nan nan nan nan nan nan nan nan nan nan nan nan nan 297 nan nan nan nan nan nan nan nan 287 291 291 293 293 294 294 294 291 290 290 292 295 298 301 304 308
175 184 180 188 199 263 320 320 318 314 308 301 297 291 284 283 280 271 265 261 257 251 245 250 258 259 nan nan nan nan nan nan nan nan nan nan nan nan nan nan nan nan nan nan nan nan nan nan nan nan nan nan nan nan nan nan nan nan nan nan nan nan nan nan nan nan nan nan 294 295 293 293 292 291 291 292 291 289 289 288 288 290 295 298 306
178 180 180 184 186 192 195 254 268 277 286 292 294 293 289 284 279 276 274 270 270 268 263 nan nan nan nan nan nan nan nan nan nan nan nan nan nan nan nan nan nan nan nan nan nan nan nan nan nan nan nan nan nan nan nan nan nan nan nan nan nan nan nan nan nan 299 297 296 296 294 294 292 291 nan 293 nan nan nan nan nan nan nan nan nan nan
173 165 158 152 150 153 189 223 243 252 274 278 283 286 283 279 276 275 274 274 273 nan nan nan nan nan nan nan nan nan nan nan nan nan nan nan nan nan nan nan nan nan nan nan nan nan nan nan nan nan nan nan nan nan nan nan nan nan nan nan nan nan nan 297 295 298 298 297 297 294 295 296 296 298 nan nan nan nan nan nan nan nan nan nan nan
170 159 154 152 152 156 172 199 222 243 259 273 276 277 274 274 274 273 277 nan nan 279 nan nan nan nan nan nan nan nan nan nan nan nan nan nan nan nan nan nan nan nan nan nan nan nan nan nan nan nan nan nan nan nan nan nan nan nan nan nan nan nan nan 298 299 299 299 300 299 296 295 297 298 294 nan nan nan nan nan nan nan nan nan nan nan
181 175 168 164 161 165 169 172 197 232 261 270 285 287 291 289 289 291 287 nan nan nan nan nan nan nan nan nan nan nan nan nan nan nan nan nan nan nan nan nan nan nan nan nan nan nan nan nan nan nan nan nan nan nan nan nan nan nan nan nan nan nan nan nan 301 304 nan 304 nan nan 301 299 294 291 291 290 nan nan nan nan nan nan nan nan nan
198 196 185 179 173 174 175 179 178 184 225 247 272 285 291 293 294 293 291 nan nan nan nan nan nan nan nan nan nan nan nan nan nan nan nan nan nan nan nan nan nan nan nan nan nan nan nan nan nan nan nan nan nan nan nan nan nan nan nan nan nan nan nan nan nan nan nan nan nan nan nan nan nan nan nan nan nan nan nan nan nan nan nan nan nan
210 216 218 206 201 194 194 193 203 185 188 216 255 272 285 293 296 298 nan nan nan nan nan 288 nan nan nan nan nan nan nan nan nan nan nan nan nan nan nan nan nan nan nan nan nan nan nan nan nan nan nan nan nan nan nan nan 287 nan nan nan nan nan nan nan nan nan nan nan nan nan nan nan nan nan nan nan nan nan nan nan nan nan nan nan nan
196 214 226 230 221 220 222 215 234 240 226 213 228 246 264 290 296 nan nan nan nan nan nan nan nan nan nan nan nan nan nan nan nan nan nan nan nan nan nan nan nan nan nan nan nan nan nan nan nan nan nan nan nan nan nan nan nan nan nan nan nan nan nan nan nan nan nan nan nan nan nan nan nan nan nan nan nan nan nan nan nan nan nan nan nan
209 209 217 214 217 227 230 231 239 244 252 250 241 236 227 228 nan nan nan nan nan nan nan nan nan nan nan nan nan nan nan nan nan nan nan nan nan nan nan nan nan nan nan nan nan nan nan nan nan nan nan nan nan nan nan nan nan nan nan nan nan nan nan nan nan nan nan nan nan nan nan nan nan nan nan nan nan nan nan nan nan nan nan nan nan
196 221 225 219 217 222 231 236 243 247 254 260 259 254 246 242 239 233 227 nan nan nan nan nan nan nan nan nan nan nan nan nan nan nan nan nan nan nan nan nan nan nan nan nan nan nan nan nan nan nan nan nan nan nan nan nan nan nan nan nan nan nan nan nan nan nan nan nan nan nan nan nan nan nan nan nan nan nan nan nan nan nan nan nan nan
204 209 222 226 222 222 230 240 245 251 253 257 260 264 267 270 nan nan 251 nan nan nan nan nan nan nan nan nan nan nan nan nan nan nan nan nan nan nan nan nan nan nan nan nan nan nan nan nan nan nan nan nan nan nan nan nan nan nan nan nan nan nan nan nan nan nan nan nan nan nan nan nan nan nan nan nan nan nan nan nan nan nan nan nan nan
208 217 221 224 226 226 236 247 251 255 256 255 255 257 262 262 264 258 nan 261 nan nan nan nan nan nan nan nan nan nan nan nan nan nan nan nan nan nan nan nan nan nan nan nan nan nan nan nan nan nan nan nan nan nan nan nan nan nan nan nan nan nan nan nan nan nan nan nan nan nan nan nan nan nan nan nan nan nan nan nan nan nan nan nan nan
230 236 232 233 236 234 233 233 241 262 265 263 264 267 265 262 260 260 261 nan nan nan nan nan nan nan nan nan nan nan nan nan nan nan nan nan nan nan nan nan nan nan nan nan nan nan nan nan nan nan nan nan nan nan nan nan nan nan nan nan nan nan nan nan nan nan nan nan nan nan nan nan nan nan nan nan nan nan nan nan nan nan nan nan nan
252 247 237 240 246 246 249 248 244 244 257 270 271 273 273 270 267 265 261 264 268 271 nan nan nan nan nan nan nan nan nan nan nan nan nan nan nan nan nan nan nan nan nan nan nan nan nan nan nan nan nan nan nan nan nan nan nan nan nan nan nan nan nan nan nan nan nan nan nan nan nan nan nan nan nan nan nan nan nan nan nan nan nan nan nan
252 247 240 238 243 250 253 253 254 257 253 257 267 274 274 275 277 272 265 261 259 258 259 265 nan nan nan nan nan nan nan nan nan nan nan nan nan nan nan nan nan nan nan nan nan nan nan nan nan nan nan nan nan nan nan nan nan nan nan nan nan nan nan nan nan nan nan nan nan nan nan nan nan nan nan nan nan nan nan nan nan nan nan nan nan
248 248 247 244 245 251 253 250 251 253 255 257 260 263 266 273 273 272 272 269 262 260 261 259 nan nan nan nan nan nan nan nan nan nan nan nan nan nan nan nan nan nan nan nan nan nan nan nan nan nan nan nan nan nan nan nan nan nan nan nan nan nan nan nan nan nan nan nan nan nan nan nan nan nan nan nan nan nan nan nan nan nan nan nan nan
245 247 246 246 247 249 251 252 250 250 252 255 256 259 262 265 268 273 276 274 272 270 267 264 262 262 nan nan nan nan nan nan nan nan nan nan nan nan nan nan nan nan nan nan nan nan nan nan nan nan nan nan nan nan nan nan nan nan nan nan nan nan nan nan nan nan nan nan nan nan nan nan nan nan nan nan nan nan nan nan nan nan nan nan nan
244 247 249 249 248 247 249 250 249 249 248 248 251 256 258 259 261 265 268 271 274 274 274 272 266 258 257 262 nan nan nan nan nan nan nan nan nan nan nan nan nan nan nan nan nan nan nan nan nan nan nan nan nan nan nan nan nan nan nan nan nan nan nan nan nan nan nan nan nan nan nan nan nan nan nan nan nan nan nan nan nan nan nan nan nan
246 245 246 250 248 248 248 247 247 248 248 247 246 249 250 255 259 261 262 267 271 271 272 272 265 256 254 260 267 272 nan nan nan nan nan nan nan nan nan nan nan nan nan nan nan nan nan nan nan nan nan nan nan nan nan nan nan nan nan nan nan nan nan nan nan nan nan nan nan nan nan nan nan nan nan nan nan nan nan nan nan nan nan nan nan
244 245 246 249 252 251 248 247 247 248 247 247 246 246 246 248 251 253 257 261 263 264 264 262 259 253 255 267 283 288 283 282 282 nan nan nan nan nan nan nan nan nan nan nan nan nan nan nan nan nan nan nan nan nan nan nan nan nan nan nan nan nan nan nan nan nan nan nan nan nan nan nan nan nan nan nan nan nan nan nan nan nan nan nan nan
239 241 243 244 248 250 249 248 248 247 247 247 246 245 244 246 247 248 244 241 241 244 249 250 249 249 255 277 287 297 284 274 275 278 nan nan nan nan nan nan nan nan nan nan nan nan nan nan nan nan nan nan nan nan nan nan nan nan nan nan nan nan nan nan nan nan nan nan nan nan nan nan nan nan nan nan nan nan nan nan nan nan nan nan nan
240 240 240 241 245 249 249 249 248 247 246 246 244 243 243 244 247 246 243 244 245 245 246 248 247 249 254 269 282 288 278 273 272 275 nan nan nan nan nan nan nan nan nan nan nan nan nan nan nan nan nan nan nan nan nan nan nan nan nan nan nan nan nan nan nan nan nan nan nan nan nan nan nan nan nan nan nan nan nan nan nan nan nan nan nan
240 239 240 239 239 241 244 245 246 247 245 243 243 242 241 241 244 250 253 253 249 245 245 250 251 253 255 263 268 270 270 271 nan 273 nan nan nan nan nan nan nan nan nan nan nan nan nan nan nan nan nan nan nan nan nan nan nan nan nan nan nan nan nan nan nan nan nan nan nan nan nan nan nan nan nan nan nan nan nan nan nan nan nan nan nan
241 240 240 239 239 240 239 240 242 244 242 240 239 238 238 239 243 247 250 251 251 250 248 248 251 254 258 263 266 267 265 268 271 272 272 276 nan nan nan nan nan nan nan nan nan nan nan nan nan nan nan nan nan nan nan nan nan nan nan nan nan nan nan nan nan nan nan nan nan nan nan nan nan nan nan nan nan nan nan nan nan nan nan nan nan
245 242 240 238 237 237 237 238 240 241 241 240 238 237 237 237 237 240 243 244 245 245 243 243 246 252 258 263 264 262 260 262 267 270 271 274 279 nan nan nan nan nan nan nan nan nan nan nan nan nan nan nan nan nan nan nan nan nan nan nan nan nan nan nan nan nan nan nan nan nan nan nan nan nan nan nan nan nan nan nan nan nan nan nan nan
247 244 241 239 236 236 237 238 240 241 241 238 236 234 235 235 236 239 239 240 242 242 241 240 243 248 253 258 260 259 259 261 265 268 272 276 279 282 nan nan nan nan nan nan nan nan nan nan nan nan nan nan nan nan nan nan nan nan nan nan nan nan nan nan nan nan nan nan nan nan nan nan nan nan nan nan nan nan nan nan nan nan nan nan nan
244 242 240 239 238 237 237 239 240 241 241 239 236 235 234 235 235 235 236 239 241 241 240 241 243 247 252 256 258 258 260 263 264 265 269 273 277 281 nan nan nan nan nan nan nan nan nan nan nan nan nan nan nan nan nan nan nan nan nan nan nan nan nan nan nan nan nan nan nan nan nan nan nan nan nan nan nan nan nan nan nan nan nan nan nan
243 244 243 242 241 241 240 241 243 245 244 241 239 237 237 238 239 241 241 241 242 242 243 244 247 251 253 255 257 258 260 263 265 266 269 272 276 nan nan nan nan nan nan nan nan nan nan nan nan nan nan nan nan nan nan nan nan nan nan nan nan nan nan nan nan nan nan nan nan nan nan nan nan nan nan nan nan nan nan nan nan nan nan nan nan
245 246 247 245 246 245 244 245 246 246 246 245 243 242 242 243 243 243 243 244 246 248 249 252 255 258 260 261 261 261 261 263 265 267 270 nan nan nan nan nan nan nan nan nan nan nan nan nan nan nan nan nan nan nan nan nan nan nan nan nan nan nan nan nan nan nan nan nan nan nan nan nan nan nan nan nan nan nan nan nan nan nan nan nan nan
242 242 244 247 248 247 247 247 246 248 250 250 248 247 246 247 247 248 249 251 253 254 256 259 261 263 265 264 262 261 260 262 265 268 nan nan nan nan nan nan nan nan nan nan nan nan nan nan nan nan nan nan nan nan nan nan nan nan nan nan nan nan nan nan nan nan nan nan nan nan nan nan nan nan nan nan nan nan nan nan nan nan nan nan nan